Flag for Russia Weather past 2 weeks in Ulyanovsk, Russia

Now
63 °F

Scattered clouds.


Feels Like: 63 °F
Forecast: 54 / 67 °F
Wind: 8 mph from Northwest

Location: Ulyanovsk

Current Time: Sep 1, 2014 at 12:24:36 PM

Latest Report: Sep 1, 2014 at 12:00 PM


Visibility: 5 mi

Pressure: 30.21 "Hg

Humidity: 68%

Dew point: 52 °F

Location of UlyanovskLocation

Historic Weather in Ulyanovsk — Graph

°F

Ulyanovsk temperature yesterday

Maximum temperature yesterday: 64 °F (at 4:00 PM)
Minimum temperature yesterday: 54 °F (at 5:00 AM)
Average temperature yesterday: 58 °F

Past Weeks' High & Low Weather Summary

 TemperatureHumidityPressure
High84 °F (Aug 18, 12:00 PM)100% (Aug 18, 7:00 AM)30.21 "Hg (Aug 18, 7:00 AM)
Low45 °F (Aug 25, 6:00 AM)39% (Aug 25, 4:00 PM)29.36 "Hg (Aug 29, 1:00 PM)
Average65 °F81%29.88 "Hg
* Reported Aug 17 11:00 AM — Sep 1 11:00 AM, Ulyanovsk, Weather by CustomWeather, © 2014

Note: Actual official high and low records may vary slightly from our data, if they occured in-between our weather recording intervals... More about our weather records

Advertising

Ulyanovsk weather history for previous 24 hours

 ConditionsComfort  
Time TempWeatherWind HumidityBarometerVisibility
11:00 AM
Sep 1
59 °FPartly sunny.1 mph77%30.21 "Hg5 mi
10:00 AM57 °FPartly sunny.6 mph88%30.21 "Hg5 mi
9:00 AM55 °FPartly sunny.3 mph94%30.18 "Hg5 mi
8:00 AM55 °FScattered clouds.8 mph94%30.18 "Hg5 mi
7:00 AM54 °FScattered clouds.3 mph100%30.15 "Hg5 mi
6:00 AM52 °FPassing clouds.3 mph100%30.12 "Hg5 mi
5:00 AM54 °FFog.1 mph100%30.12 "Hg3 mi
4:00 AM54 °FFog.6 mph100%30.12 "Hg2 mi
3:00 AM55 °FFog.6 mph94%30.09 "Hg2 mi
2:00 AM55 °FFog.8 mph100%30.09 "Hg2 mi
1:00 AM55 °FFog.6 mph100%30.07 "Hg2 mi
12:00 AM57 °FFog.6 mph94%30.07 "Hg3 mi
11:00 PM
Aug 31
57 °FFog.8 mph94%30.04 "Hg3 mi
10:00 PM57 °FPassing clouds.8 mph94%30.04 "HgN/A
9:00 PM59 °FPassing clouds.8 mph88%30.04 "HgN/A
8:00 PM59 °FPartly sunny.6 mph88%30.01 "HgN/A
7:00 PM57 °FBroken clouds.6 mph88%30.01 "Hg5 mi
6:00 PM59 °FPartly sunny.8 mph82%30.01 "Hg5 mi
5:00 PM63 °FBroken clouds.8 mph64%29.98 "Hg5 mi
4:00 PM64 °FPartly sunny.10 mph64%29.95 "Hg5 mi
3:00 PM63 °FPartly sunny.10 mph64%29.95 "Hg5 mi
2:00 PM61 °FPartly sunny.8 mph72%29.95 "Hg5 mi
1:00 PM61 °FPartly sunny.6 mph72%29.95 "Hg5 mi
12:00 PM59 °FOvercast.8 mph77%29.95 "Hg5 mi
Weather by CustomWeather, © 2014

See weather overviewHow to use our weather pages